Weather History for MCMWTC BRIDGEPORT, CA, CA

Change the Weather History Date:

Tuesday, February 4, 2014

  Actual Average (KTVL) Record (KTVL)
Temperature  
Mean Temperature 16 °F 30 °F  
Max Temperature 34 °F 43 °F 55 °F (2007)
Min Temperature -2 °F 17 °F -3 °F (1969)
Degree Days  
Heating Degree Days 49 35  
Month to date heating degree days 140  
Since 1 July heating degree days 4422  
Cooling Degree Days 0 0  
Month to date cooling degree days 0  
Year to date cooling degree days 0  
Moisture  
Dew Point 4 °F    
Average Humidity 71    
Maximum Humidity 87    
Minimum Humidity 44    
Precipitation  
Precipitation 0.00 in - 3.66 in (1937)
Month to date precipitation  
Year to date precipitation  
Sea Level Pressure  
Sea Level Pressure 30.11 in    
Wind  
Wind Speed 1 mph (West)    
Max Wind Speed 5 mph    
Max Gust Speed -    
Visibility 10 miles    
Events      
T = Trace of Precipitation, MM = Missing Value Source: NWS Daily Summary

Daily Weather History Graph

Daily Weather History Graph

Search for Another Location

Airport:

Trip Planner

Search our weather history database for the weather conditions in past years. The results will help you decide how hot, cold, wet, or windy it might be!

Date:

Astronomy

Feb. 04, 2014 Rise Set
Actual Time 7:00 AM PST 5:24 PM PST
Civil Twilight 6:32 AM PST 5:51 PM PST
Nautical Twilight 6:01 AM PST 6:23 PM PST
Astronomical Twilight 5:30 AM PST 6:54 PM PST
Moon 9:46 AM PST (2/4) 11:17 PM PST (2/4)
Length of Visible Light 11h 19m
Length of Day
10h 23m
Waxing Crescent, 30% of the Moon is Illuminated
Feb 4
Waxing Crescent
Feb 6
First Quarter
Feb 14
Full
Feb 22
Last Quarter
Mar 1
New

Hourly Weather History & Observations

Time (PST) Temp. Windchill Dew Point Humidity Pressure Visibility Wind Dir Wind Speed Gust Speed Precip Events Conditions
12:52 AM 9.0 °F - 1.0 °F 70% 29.99 in 10.0 mi Calm Calm - N/A   Clear
1:52 AM 3.0 °F - -2.0 °F 80% 30.03 in 10.0 mi Calm Calm - N/A   Clear
2:52 AM 3.9 °F - -2.0 °F 76% 30.03 in 10.0 mi Calm Calm - N/A   Clear
3:52 AM -2.0 °F -10.1 °F -6.0 °F 83% 30.08 in 10.0 mi Variable 3.5 mph - N/A   Clear
4:52 AM -2.0 °F - -7.1 °F 79% 30.09 in 10.0 mi Calm Calm - N/A   Clear
5:52 AM -0.0 °F - -7.1 °F 72% 30.11 in 10.0 mi Calm Calm - N/A   Clear
6:52 AM -2.0 °F - -8.0 °F 76% 30.13 in 3.0 mi Calm Calm - N/A   Haze
7:52 AM -0.9 °F - -6.0 °F 79% 30.14 in 10.0 mi Calm Calm - N/A   Clear
8:52 AM 3.0 °F - -0.0 °F 87% 30.14 in 10.0 mi Calm Calm - N/A   Clear
9:52 AM 7.0 °F - 1.9 °F 80% 30.14 in 10.0 mi Calm Calm - N/A   Clear
10:52 AM 14.0 °F - 3.9 °F 64% 30.13 in 10.0 mi Calm Calm - N/A   Clear
11:52 AM 18.0 °F - 6.1 °F 60% 30.09 in 10.0 mi Calm Calm - N/A   Clear
12:52 PM 21.0 °F - 7.0 °F 55% 30.09 in 10.0 mi Calm Calm - N/A   Clear
1:52 PM 25.0 °F - 10.0 °F 53% 30.07 in 10.0 mi Calm Calm - N/A   Clear
2:52 PM 27.0 °F 23.0 °F 12.0 °F 53% 30.05 in 10.0 mi SSW 3.5 mph - N/A   Clear
3:52 PM 34.0 °F 29.8 °F 14.0 °F 44% 30.04 in 10.0 mi Variable 4.6 mph - N/A   Clear
4:52 PM 28.0 °F - 14.0 °F 56% 30.09 in 10.0 mi Calm Calm - N/A   Clear
5:52 PM 21.9 °F 15.7 °F 12.9 °F 68% 30.12 in 10.0 mi NNW 4.6 mph - N/A   Clear
6:52 PM 19.0 °F - 10.0 °F 68% 30.16 in 10.0 mi Calm Calm - N/A   Partly Cloudy
7:52 PM 15.1 °F - 9.0 °F 77% 30.19 in 10.0 mi Calm Calm - N/A   Partly Cloudy
8:52 PM 15.1 °F - 10.0 °F 80% 30.19 in 10.0 mi Calm Calm - N/A   Mostly Cloudy
9:52 PM 15.1 °F - 9.0 °F 77% 30.18 in 10.0 mi Calm Calm - N/A   Overcast
10:52 PM 12.9 °F - 7.0 °F 77% 30.17 in 10.0 mi Calm Calm - N/A   Overcast
11:52 PM 15.1 °F - 10.0 °F 80% 30.14 in 10.0 mi Calm Calm - N/A   Mostly Cloudy